TimeCST,TemperatureF,Dew PointF,Humidity,Sea Level PressureIn,VisibilityMPH,Wind Direction,Wind SpeedMPH,Gust SpeedMPH,PrecipitationIn,Events,Conditions,WindDirDegrees,DateUTC
12:37 AM,37.4,33.8,87,29.96,8.0,NNW,13.8,20.7,0.02,Rain,Light Rain,340,2013-11-27 06:37:00
12:50 AM,37.4,33.8,87,29.97,7.0,NNW,8.1,17.3,0.03,Rain,Light Rain,340,2013-11-27 06:50:00
12:53 AM,37.9,33.1,83,29.97,8.0,NNW,10.4,-,0.03,Rain,Light Rain,340,2013-11-27 06:53:00
1:07 AM,37.4,33.8,87,29.98,10.0,NNW,10.4,-,0.00,Rain,Light Rain,340,2013-11-27 07:07:00
1:53 AM,39.0,30.9,73,29.99,10.0,NNW,10.4,-,0.00,,Overcast,340,2013-11-27 07:53:00
2:53 AM,37.9,30.0,73,30.01,10.0,NNW,12.7,19.6,N/A,,Partly Cloudy,340,2013-11-27 08:53:00
3:53 AM,37.9,28.0,68,30.04,10.0,NW,9.2,17.3,N/A,,Clear,320,2013-11-27 09:53:00
4:53 AM,37.9,28.0,68,30.06,10.0,NNW,17.3,25.3,N/A,,Overcast,330,2013-11-27 10:53:00
5:53 AM,37.0,26.1,65,30.10,10.0,NW,13.8,23.0,N/A,,Overcast,320,2013-11-27 11:53:00
6:53 AM,37.0,23.0,57,30.14,10.0,NNW,15.0,25.3,N/A,,Overcast,340,2013-11-27 12:53:00
7:53 AM,36.0,21.9,57,30.16,10.0,NNW,10.4,20.7,N/A,,Overcast,340,2013-11-27 13:53:00
8:53 AM,36.0,23.0,59,30.19,10.0,NW,15.0,25.3,N/A,,Overcast,320,2013-11-27 14:53:00
9:53 AM,36.0,21.9,57,30.23,10.0,NW,15.0,24.2,N/A,,Partly Cloudy,320,2013-11-27 15:53:00
10:53 AM,37.9,19.9,48,30.22,10.0,NW,17.3,25.3,N/A,,Clear,320,2013-11-27 16:53:00
11:53 AM,39.9,19.0,43,30.22,10.0,NW,10.4,23.0,N/A,,Clear,320,2013-11-27 17:53:00
12:53 PM,39.9,18.0,41,30.21,10.0,NNW,6.9,-,N/A,,Clear,330,2013-11-27 18:53:00
1:53 PM,43.0,19.0,38,30.21,10.0,NNW,11.5,19.6,N/A,,Clear,330,2013-11-27 19:53:00
2:53 PM,42.1,18.0,38,30.23,10.0,NNW,12.7,19.6,N/A,,Clear,330,2013-11-27 20:53:00
3:53 PM,41.0,16.0,36,30.25,10.0,NNW,9.2,18.4,N/A,,Clear,330,2013-11-27 21:53:00
4:53 PM,37.9,17.1,43,30.27,10.0,NNW,5.8,-,N/A,,Clear,330,2013-11-27 22:53:00
5:53 PM,36.0,16.0,44,30.31,10.0,NNW,6.9,-,N/A,,Clear,330,2013-11-27 23:53:00
6:53 PM,34.0,16.0,48,30.33,10.0,NNW,4.6,-,N/A,,Clear,340,2013-11-28 00:53:00
7:53 PM,32.0,17.1,54,30.35,10.0,North,5.8,-,N/A,,Clear,360,2013-11-28 01:53:00
8:53 PM,30.9,16.0,54,30.37,10.0,NW,3.5,-,N/A,,Clear,320,2013-11-28 02:53:00
9:53 PM,28.9,18.0,64,30.39,10.0,Calm,Calm,-,N/A,,Clear,0,2013-11-28 03:53:00
10:53 PM,28.0,18.0,66,30.40,10.0,Calm,Calm,-,N/A,,Clear,0,2013-11-28 04:53:00
11:53 PM,27.0,17.1,66,30.41,10.0,North,4.6,-,N/A,,Clear,10,2013-11-28 05:53:00